sat.trackr.live / text

‹ back to catalog

STARLINK-36253

NORAD 68028 · 2026-040P

PAYLOAD ACTIVE UNKNOWN

§ Identity

Operator
Country
US
Launch date
2026-03-01
Launch site
AFWTR
Launch vehicle
Mass (kg)
RCS (m²)

Purposes: comms

External: N2YO · Heavens-Above · Gunter

§ Orbital elements

Epoch: 2026-09-19T13:45:33.566688Z

Period
92.73 min
Inclination
97.2797°
Eccentricity
0.0006691
Mean motion
15.52855421 rev/d
Perigee alt
403.9 km
Apogee alt
412.9 km
Semi-major
6,786.5 km
B*
2.6262e-3
RAAN
210.1417°
Arg perigee
102.6396°
Mean anomaly
257.5605°
Rev number
3,119

§ Raw data

STARLINK-362531 68028U 26040P   26262.57330517  .00166105  00000+0  26262-2 0  99932 68028  97.2797 210.1417 0006691 102.6396 257.5605 15.52855421 31194

JSON: /api/v1/satellites/68028 · /tle

For live sub-satellite position, see the globe view (requires WebGL).

§ Visibility from observer

Set your observer location to see the next 7 days of passes ≥ 10°. The values pass through the URL so the page stays shareable.

No JS? Fill the form by hand. The geolocation button needs JavaScript.